LGD Airport (La Grande/Union County) Information

FAA: LGD - ICAO: KLGD

LGD Airport Location

State Oregon
County Union
City La Grande
LGD Airport is 4 miles southeast of La Grande, OR.
Latitude 45-17-22.3724N
Longitude 118-00-22.0464W
Elevation 2,717ft

KLGD Airport METARs

METAR KLGD 071956Z AUTO 17023G30KT 10SM CLR 01/M05 A3014 RMK AO2 PK WND 18030/1950 SLP232 T00111050 FZRANO
Altimeter 30.14"
Temperature 1.1°C (34.0°F)
Wind 170° at 23KT with gusts to 30KT
Clouds Skies are clear.
Visibility 10.0mi
Time observed: 2022-12-07T19:56:00Z

LGD Airport Details

Status Operational
Activation March 1940
Ownership Public
Usage Public
Chart SEATTLE
ATC on-site No
Beacon schedule sunset-sunrise
Beacon color clear green

LGD Airport Contacts

Owner UNION COUNTY
Owner address 1106 K AVENUE, LA GRANDE, OR 97850
Owner phone 514-963-1016
Manager MILES HANCOCK
Manager address 59973 DOWNS RD, LAGRANDE, OR 97850
Manager phone 541-975-5418

LGD Airport (La Grande/Union County) Radio Frequencies

LGD (Airport) Radio Frequencies

UNICOM 122.8
Common traffic advisory frequency (CTAF) 122.8